TimeEST,TemperatureF,Dew PointF,Humidity,Sea Level PressureIn,VisibilityMPH,Wind Direction,Wind SpeedMPH,Gust SpeedMPH,PrecipitationIn,Events,Conditions,WindDirDegrees,DateUTC
12:21 AM,66.2,59.0,78,29.84,10.0,South,9.2,-,N/A,,Overcast,180,2014-02-21 05:21:00
12:53 AM,66.0,60.1,81,29.82,10.0,South,8.1,-,N/A,,Overcast,190,2014-02-21 05:53:00
1:24 AM,66.2,60.8,83,29.81,10.0,South,9.2,-,0.00,Rain,Light Rain,180,2014-02-21 06:24:00
1:35 AM,66.2,60.8,83,29.81,10.0,South,10.4,19.6,0.00,,Overcast,180,2014-02-21 06:35:00
1:53 AM,66.0,60.1,81,29.78,10.0,South,12.7,-,0.00,,Overcast,180,2014-02-21 06:53:00
2:22 AM,64.4,62.6,94,29.82,4.0,West,11.5,-,0.03,Rain-Thunderstorm,Rain,280,2014-02-21 07:22:00
2:28 AM,64.4,62.6,94,29.81,1.8,SSW,15.0,28.8,0.12,Rain-Thunderstorm,Heavy Rain,200,2014-02-21 07:28:00
2:36 AM,62.6,60.8,94,29.81,2.0,SSW,12.7,26.5,0.23,Rain-Thunderstorm,Rain,200,2014-02-21 07:36:00
2:44 AM,62.6,60.8,94,29.83,4.0,South,15.0,20.7,0.25,Rain-Thunderstorm,Rain,190,2014-02-21 07:44:00
2:53 AM,61.0,59.0,93,29.76,2.5,Variable,3.5,21.9,0.30,Rain-Thunderstorm,Heavy Rain,0,2014-02-21 07:53:00
3:05 AM,62.6,60.8,94,29.81,3.0,West,10.4,-,0.07,Rain-Thunderstorm,Rain,260,2014-02-21 08:05:00
3:12 AM,62.6,60.8,94,29.80,2.5,West,11.5,20.7,0.12,Rain-Thunderstorm,Heavy Rain,270,2014-02-21 08:12:00
3:24 AM,62.6,60.8,94,29.81,3.0,WSW,9.2,19.6,0.17,Rain-Thunderstorm,Heavy Thunderstorms and Rain,250,2014-02-21 08:24:00
3:35 AM,62.6,60.8,94,29.79,2.0,SW,10.4,18.4,0.27,Rain-Thunderstorm,Heavy Rain,220,2014-02-21 08:35:00
3:44 AM,62.6,60.8,94,29.82,1.8,West,17.3,27.6,0.36,Rain-Thunderstorm,Heavy Rain,280,2014-02-21 08:44:00
3:53 AM,59.0,55.9,90,29.81,2.0,WNW,21.9,36.8,0.46,Rain-Thunderstorm,Heavy Rain,290,2014-02-21 08:53:00
3:56 AM,57.2,53.6,88,29.83,2.5,WNW,17.3,36.8,0.02,Rain-Thunderstorm,Heavy Rain,290,2014-02-21 08:56:00
4:03 AM,55.4,53.6,94,29.84,3.0,NW,21.9,27.6,0.04,Rain,Heavy Rain,310,2014-02-21 09:03:00
4:53 AM,50.0,48.9,96,29.88,6.0,West,8.1,-,0.13,Rain,Light Rain,280,2014-02-21 09:53:00
5:53 AM,50.0,45.0,83,29.92,10.0,NW,11.5,19.6,0.00,,Overcast,310,2014-02-21 10:53:00
6:53 AM,48.0,39.9,74,29.98,10.0,NW,11.5,-,N/A,,Overcast,310,2014-02-21 11:53:00
7:53 AM,46.0,36.0,68,30.02,10.0,NW,3.5,-,N/A,,Mostly Cloudy,320,2014-02-21 12:53:00
8:53 AM,46.0,37.0,71,30.04,10.0,Calm,Calm,-,N/A,,Clear,0,2014-02-21 13:53:00
9:53 AM,50.0,32.0,50,30.05,10.0,NNW,5.8,-,N/A,,Clear,330,2014-02-21 14:53:00
10:53 AM,52.0,32.0,47,30.04,10.0,NW,10.4,18.4,0.00,,Clear,320,2014-02-21 15:53:00
11:53 AM,54.0,30.0,40,30.04,10.0,NW,13.8,20.7,N/A,,Clear,320,2014-02-21 16:53:00
12:53 PM,55.0,30.9,40,30.03,10.0,NW,11.5,16.1,N/A,,Clear,320,2014-02-21 17:53:00
1:53 PM,57.0,25.0,29,30.02,10.0,NNW,10.4,-,N/A,,Clear,330,2014-02-21 18:53:00
2:53 PM,57.9,24.1,27,30.02,10.0,WNW,8.1,-,N/A,,Clear,300,2014-02-21 19:53:00
3:53 PM,57.9,21.9,25,30.03,10.0,West,5.8,-,N/A,,Clear,280,2014-02-21 20:53:00
4:53 PM,57.9,23.0,26,30.04,10.0,West,6.9,-,N/A,,Clear,260,2014-02-21 21:53:00
5:53 PM,55.9,25.0,30,30.05,10.0,West,4.6,-,N/A,,Clear,270,2014-02-21 22:53:00
6:53 PM,50.0,26.1,39,30.06,10.0,Calm,Calm,-,N/A,,Clear,0,2014-02-21 23:53:00
7:53 PM,44.1,30.9,60,30.07,10.0,Calm,Calm,-,N/A,,Clear,0,2014-02-22 00:53:00
8:53 PM,41.0,30.9,67,30.09,10.0,Calm,Calm,-,N/A,,Clear,0,2014-02-22 01:53:00
9:53 PM,41.0,32.0,70,30.09,10.0,Calm,Calm,-,N/A,,Clear,0,2014-02-22 02:53:00
10:53 PM,37.0,32.0,82,30.10,10.0,Calm,Calm,-,N/A,,Clear,0,2014-02-22 03:53:00
11:53 PM,37.0,33.1,86,30.10,10.0,Calm,Calm,-,N/A,,Clear,0,2014-02-22 04:53:00